User: anonymous
Location: Livonia
(42.3680°N, 83.3530°W)
Time: 09:56:32
(UTC-04:00)
Language:

MOZ.5/SAFIR/RUBIN 5/SL-8 - Orbit

View from above orbital plane
View from above orbital plane
View from above satellite
View from above satellite

Ground track
Ground track

The orbit data is extracted from the following two-line orbital elements,

1 28898U 05043G   14112.49188330  .00000680  00000-0  15237-3 0  7951
2 28898 097.8380 305.1542 0019781 207.2624 211.1925 14.59429227451805
Epoch (UTC): 22 April 2014 11:48:18
Eccentricity: 0.0019781
inclination: 97.8380°
perigee height: 681 km
apogee height: 709 km
right ascension of ascending node: 305.1542°
argument of perigee: 207.2624°
revolutions per day: 14.59429227
mean anomaly at epoch: 211.1925°
orbit number at epoch: 45180

The dashed part of the orbit path shows where the satellite is in the earth's shadow,  

DLR